Location: Givhans Ferry State Park
(33.0284°N, 80.3868°W)
Time: 07:29:19
(UTC-05:00)

Daily predictions for brighter satellites

Satellite Brightness Start Highest point End
(mag) Time Altitude Azimuth Time Altitude Azimuth Time Altitude Azimuth
Meteor 1-11 Rocket 4.4 18:31:18 10° SSE 18:36:23 33° E 18:41:34 10° NNE
Nadezhda 1 Rocket 4.0 18:34:34 10° N 18:40:41 85° E 18:46:44 10° S
Cosmos 1140 Rocket 3.7 18:38:51 10° S 18:43:46 50° ESE 18:48:44 10° NNE
DELTA 2 R/B (1) 4.0 18:39:46 10° WNW 18:45:15 52° NNE 18:50:43 10° E
Cosmos 1461 2.8 18:41:59 10° NNW 18:45:59 63° ENE 18:50:06 10° SE
Cosmos 1602 4.1 18:43:27 10° SSE 18:47:04 40° E 18:50:44 10° NNE
Resurs 01 Rocket 3.0 18:44:44 10° ESE 18:47:42 18° ENE 18:50:41 10° NNE
Cosmos 1300 Rocket 3.9 18:44:25 10° SSE 18:48:32 42° E 18:52:43 10° NNE
CENTAUR R/B 4.1 18:41:47 10° NW 18:49:35 53° WSW 18:57:36 10° S
Cosmos 2292 Rocket 4.1 18:46:38 10° S 18:51:23 79° E 18:57:52 10° N
Cosmos 614 Rocket 4.3 18:46:53 10° S 18:51:40 43° ESE 18:56:27 10° NNE
OAO 3 Copernicus 4.4 18:46:53 10° WNW 18:51:59 78° N 18:56:45 12° E
Cosmos 1833 4.2 18:47:54 10° SSW 18:53:38 88° ESE 18:59:19 10° NNE
Abrixas rocket 2.7 18:50:49 10° SSW 18:54:01 43° SE 18:56:51 12° ENE
ALOS 3.0 18:51:28 10° SE 18:55:32 31° ENE 18:59:37 10° N
ASTRO E2 4.4 18:52:26 10° W 18:55:55 28° SSW 18:59:23 10° SE
COSMO-SKYMED 1 4.2 18:53:43 10° N 18:57:44 38° WNW 19:01:44 10° SW
Spot 2 Rocket 4.4 18:55:50 10° SE 18:59:59 27° ENE 19:04:10 10° NNE
Cosmos 2181 Rocket 4.2 18:54:36 10° N 19:00:41 51° E 19:06:49 10° SSE
FREGAT/IRIS 2.7 19:00:13 10° SSE 19:03:13 53° ENE 19:06:15 10° N
SL-16 R/B 2.8 19:00:42 10° NNW 19:06:18 63° WSW 19:11:52 10° S
Cosmos 1340 2.6 19:05:07 10° N 19:08:53 64° E 19:12:37 10° SSE
Cosmos 1709 Rocket 4.1 19:04:28 10° S 19:10:44 82° W 19:16:56 10° N
Cosmos 1850 Rocket 4.1 19:05:43 10° S 19:10:52 57° ESE 19:16:05 10° NNE
Cosmos 2074 Rocket 4.4 19:05:12 10° SSE 19:10:54 39° E 19:16:39 10° NNE
Cosmos 2184 Rocket 4.4 19:08:02 10° SSE 19:13:51 40° E 19:19:37 10° NNE
FengYun 1-2 T 4.3 19:12:13 10° SSE 19:17:31 53° ENE 19:22:50 10° N
NOSS 8 (H) 4.4 19:14:56 10° SSW 19:18:22 80° WNW 19:21:49 10° NNE
HJ-1C 3.4 19:17:04 10° SSE 19:20:21 52° ENE 19:23:38 10° N
Helios 1B rocket 3.3 19:18:13 16° NE 19:20:33 26° E 19:24:03 10° SSE
OTV 4 2.1 19:19:14 10° SSW 19:21:27 19° SSE 19:21:31 19° SSE
SJ-6B 2.9 19:17:36 10° S 19:21:38 84° WSW 19:25:37 10° NNW
Cosmos 2322 Rocket 3.5 19:17:22 10° NW 19:22:38 42° WSW 19:27:52 10° S
Okean 1 Rocket 3.0 19:18:49 10° S 19:23:17 83° E 19:27:47 10° N
FENGYUN 3A 3.6 19:20:00 10° SSE 19:25:19 65° ENE 19:30:42 10° N
Tiangong 2 0.9 19:22:23 10° WNW 19:25:27 82° SSW 19:26:32 37° SE
Genesis I 4.4 19:25:06 10° N 19:28:05 24° NE 19:28:05 24° NE
Hubble Space Telescope 2.2 19:27:07 10° SW 19:30:25 23° SSE 19:31:23 21° SE
Meteor 1-19 Rocket 4.2 19:25:13 10° N 19:30:56 82° E 19:36:44 10° S
Gbstr 26 Del rocket 4.4 19:30:42 10° W 19:34:05 28° NW 19:36:53 13° NNE
Cosmos 2322 3.6 19:33:21 10° NNW 19:39:06 80° ENE 19:44:47 10° SSE
Cosmos 1238 Rocket 3.2 19:37:00 10° NNW 19:39:50 45° W 19:42:46 10° SSW
Atlas Centaur 2 4.1 19:38:39 10° S 19:42:35 16° SSE 19:43:34 15° SE
CZ-2D R/B 3.6 19:43:32 43° NE 19:43:32 43° NE 19:46:37 10° N
GPS 2-04 Rocket1 2.8 19:41:10 10° WSW 19:45:28 85° NNW 19:46:29 52° ENE
Cosmos 2285 Rocket 4.5 19:40:37 10° N 19:46:34 39° ENE 19:47:50 35° E
GEOS 3 Rocket 4.4 19:41:45 10° NNE 19:46:49 52° NW 19:51:56 10° SW
Cosmos 1025 Rocket 3.0 19:43:21 10° N 19:47:41 57° E 19:48:42 45° SE
H-2A R/B 2.5 19:46:26 29° SSE 19:48:12 82° ENE 19:51:56 10° N
Meteor 2-13 Rocket 4.5 19:42:54 10° SSE 19:48:42 51° E 19:54:33 10° NNE
Cosmos 1536 3.5 19:45:07 10° SSW 19:49:00 54° W 19:52:55 10° N
SL-19 R/B 4.3 19:44:58 10° SSE 19:50:34 90° ENE 19:56:31 10° NNW
Okean 1-7 Rocket 3.6 19:49:23 10° N 19:53:55 85° W 19:58:22 10° S
COSMOS 2428 2.8 19:48:53 10° N 19:54:27 54° ENE 19:55:38 45° ESE
Meteor 1-23 Rocket 4.1 19:48:54 10° N 19:54:42 76° E 20:00:25 10° SSE
Cosmos 2237 4.1 19:49:01 10° NNW 19:54:44 71° ENE 19:57:28 32° SE
Cosmos 2333 4.4 19:50:17 10° N 19:55:49 48° ENE 19:56:21 46° E
Meteor 2-4 Rocket 3.6 19:51:29 10° N 19:57:00 82° W 20:02:21 10° S
Cosmos 2237 Rocket 4.1 19:54:28 10° NNE 19:55:53 14° NNE 19:55:53 14° NNE
Cosmos 2219 4.1 20:04:57 10° SW 20:10:29 49° WNW 20:16:04 10° N
Cosmos 2360 Rocket 3.3 20:08:10 10° NW 20:13:27 42° WSW 20:18:44 10° S
Cosmos 2219 Rocket 3.1 20:10:07 10° N 20:13:35 33° NNE 20:13:35 33° NNE
Cosmos 2227 Rocket 3.6 20:11:15 10° S 20:13:25 23° S 20:13:25 23° S
Cosmos 1570 Rocket 4.5 20:16:55 10° NNW 20:22:03 58° WSW 20:24:15 33° SSW
Resurs 01 Rocket 3.3 20:19:57 10° SSW 20:23:54 32° W 20:27:52 10° NW
DELTA 2 R/B (1) 3.8 20:26:18 10° WNW 20:31:31 64° SW 20:31:31 64° SW
ATLAS CENTAUR R/B 3.7 20:27:53 10° WSW 20:30:46 25° W 20:30:46 25° W
Cosmos 2333 Rocket 3.7 20:43:36 10° NNW 20:46:14 28° N 20:46:14 28° N
USA 229 DEB 3.9 20:48:08 10° NNW 20:54:32 73° NW 20:54:32 73° NW
USA 229 3.9 20:48:14 10° NNW 20:54:36 72° NW 20:54:36 72° NW
ATLAS 3B CENTAUR R/B 4.4 20:53:54 10° SW 21:16:24 50° S 21:16:24 50° S
